MOLNIYA 2-10

Last updated on Oct. 29, 2020, 5:52 a.m. UTC

1 07376U 74056A   20299.81341419  .00001244  00000-0  00000-0 0  9999
2 07376  63.5823 155.2888 6689225 291.4960  12.5243  2.01108262338337
UTC
Height (km)
Latitude
Longitude
Inclination
Orbital Period
UTC large
Height (km)
Speed (km/s)
/
Latitude / Longitude
Inclination (degrees)
Orbital Period (minutes)
Azimuth
Elevation
Range (km)
Doppler Factor
iOS Compass Heading
iOS Angle

Next 30 passes for location: Hong Kong

Rise time Rise Azimuth (degrees) Set time Set Azimuth (degrees) Duration Max altitude (degrees)

No matching passes for this satellites